Back to catalog

DMSP 5D-2 F9 DEB

AliveSSO
NORAD 39046·DEBRIS·🇺🇸 United States

Launched Feb 3, 1988 from Vandenberg Space Force Base

Loading…

Next Passes (next 24 hours)

TLE

FreshSource: Space-Track

Epoch: Sep 14, 2026, 11:05 UTC

1 39046U 88006M   26257.46242826  .00001537  00000-0  62495-3 0  9995
2 39046  98.6368  77.0308 0069941  50.2757 339.4842 14.27650330708957

Track DMSP 5D-2 F9 DEB in real time with AllMySat

Download on the App Store